Regional Weather Roundup
Issued by NWS

Home | Current Version | Previous Version | Text Only | Print | Product List | Glossary Off
Versions: 1 2 3 4 5 6 7 8 9 10 11 12 13 14 15 16 17 18 19 20 21 22 23 24 25 26 27 28 29 30 31 32 33 34 35 36 37 38 39 40 41 42 43 44 45 46 47 48 49 50

162
ASUS43 KIND 060909
RWRIN

WEATHER ROUNDUP FOR INDIANA
NATIONAL WEATHER SERVICE INDIANAPOLIS IN
400 AM EST TUE DEC 06 2016

NOTE: "FAIR" INDICATES FEW OR NO CLOUDS BELOW 12,000 FEET WITH NO
SIGNIFICANT WEATHER AND/OR OBSTRUCTIONS TO VISIBILITY.

* - STATION DOES NOT REPORT WEATHER SUCH AS PRECIPITATION OR FOG.

+ - STATION NOT QUALITY CONTROLLED BY THE NATIONAL WEATHER SERVICE.
    USE DATA WITH CAUTION...ESPECIALLY DEWPOINT AND RELATIVE
    HUMIDITY OBSERVATIONS.

INZ001>003-010>013-019-020-061000-
NORTHWEST INDIANA

CITY           SKY/WX    TMP DP  RH WIND       PRES   REMARKS
GARY /AIRPORT/ PTCLDY    33  32  98 E6        29.87F FOG     WCI  27
KNOX *+        CLOUDY    32  19  59 E6        29.85F WCI  26
LA PORTE +     CLOUDY   N/A N/A N/A E8        29.87F HAZE
MICHIGAN CITY+ CLOUDY    32  32 100 CALM      29.87F
MONTICELLO +   CLOUDY    33  28  84 E5        29.82F WCI  28
RENSSELAER +     N/A     32  32 100 E9        29.82F FOG     WCI  24
VALPARAISO     CLOUDY    30  27  88 E10       29.86F FOG     WCI  21

$$

LMZ046-743>745-061000-
SOUTHERN LAKE MICHIGAN

STATION/POSITION TIME  TEMP    WIND        PRES    WAVE
                       AIR SEA DIR/SP/G            HT
                 (UTC) (F)     (DEG/KT/KT) (MB)    (FT)
BURNS HARBOR     0840   34     100/  7/ 13 1012.2S

$$

INZ004-005-014>016-021>024-061000-
NORTH CENTRAL INDIANA

CITY           SKY/WX    TMP DP  RH WIND       PRES   REMARKS
GOSHEN         PTCLDY    31  27  85 E12       29.87F WCI  22
LOGANSPORT +   MOCLDY    32  30  93 E7        29.84F WCI  26
PERU/GRISSOM   CLOUDY    33  31  95 E10       29.81F WCI  24
ROCHESTER +    CLOUDY    34  32  93 E9        29.86F WCI  26
SOUTH BEND     CLOUDY    30  28  92 E9        29.88F WCI  22
WARSAW +       CLOUDY    32  28  86 E10       29.87F WCI  24

$$

INZ006>009-017-018-025>027-061000-
NORTHEAST INDIANA

CITY           SKY/WX    TMP DP  RH WIND       PRES   REMARKS
ANGOLA *+      CLEAR     30  27  86 E8        29.89F WCI  23
AUBURN +       PTCLDY    32  28  86 E10       29.89F WCI  24
FORT WAYNE     CLOUDY    30  27  88 E12       29.88F WCI  20
HUNTINGTON +   CLOUDY    30  29  96 E8        29.86F WCI  23
KENDALLVILLE + PTCLDY    31  29  90 E7        29.89F WCI  24

$$

INZ028-029-035-036-043>045-051>053-061000-
WEST CENTRAL INDIANA

CITY           SKY/WX    TMP DP  RH WIND       PRES   REMARKS
CRAWFORDSVL +  CLOUDY    34  34 100 E9        29.79F WCI  27
GREENCASTLE +  CLOUDY    36  36 100 E8        29.79F
LAFAYETTE      PTCLDY    33  32  96 E10       29.81F WCI  25
TERRE HAUTE    CLOUDY    38  34  85 E8        29.78F

$$

INZ030>032-037>040-046>048-054>057-064-065-061000-
CENTRAL INDIANA

CITY           SKY/WX    TMP DP  RH WIND       PRES   REMARKS
CP ATTERBURY + MOCLDY    37  34  87 E7        29.80F
FISHERS *+     PTCLDY    34  34 100 E3        29.81
FRANKFORT +    CLOUDY    36  33  88 E13       29.83F
GREENWOOD *+   CLOUDY    37  33  87 E7        29.81F
INDIANAPOLIS   CLOUDY    38  32  79 E13       29.79F
-EAGLE CREEK   CLOUDY    37  31  78 E7        29.80F
KOKOMO +       CLOUDY    32  30  92 E9        29.83F WCI  24
MARION +       CLOUDY    32  30  92 E9        29.83F WCI  24
MT COMFORT *+  CLOUDY    34  32  93 NE5       29.81F WCI  30
SHELBYVILLE    CLOUDY    38  32  79 E14       29.79F
ZIONSVILLE +   CLOUDY    33  31  93 NE6       29.82F WCI  27

$$

INZ033-034-041-042-049-050-058-059-061000-
EAST CENTRAL INDIANA

CITY           SKY/WX    TMP DP  RH WIND       PRES   REMARKS
MUNCIE         CLOUDY    35  30  82 E12       29.83F WCI  27

$$

INZ060-061-067>069-081>083-085>088-061000-
SOUTHWEST INDIANA

CITY           SKY/WX    TMP DP  RH WIND       PRES   REMARKS
EVANSVILLE     LGT RAIN  42  40  92 NE6       29.74S
HUNTINGBURG *+ LGT RAIN  41  40  96 E8        29.73F FOG
WASHINGTON +   DRIZZLE   40  38  93 E7        29.75F

$$

INZ062-063-066-070>080-084-089>092-061000-
SOUTH CENTRAL AND SOUTHEAST INDIANA

CITY           SKY/WX    TMP DP  RH WIND       PRES   REMARKS
BLOOMINGTON    LGT RAIN  40  33  76 E7        29.75F
MADISON *+     CLOUDY    39  36  87 NE8       29.80F
NORTH VERNON + DRIZZLE   41  39  93 NE6       29.81S

$$





USA.gov is the U.S. government's official web portal to all federal, state and local government web resources and services.